OpenBCM V1.13 (Linux)

Packet Radio Mailbox

DB0FHN

[JN59NK Nuernberg]

 Login: GUEST





  
I0OJJ  > KEPS     11.02.26 02:33l 319 Lines 15177 Bytes #999 (0) @ AMSAT
BID : ORB26042.1
Read: OE5RCO DJ6UX GUEST
Subj: 2Line Orbital Elements 26042.AMSAT
Path: DB0FHN<DB0RKB<DK0WUE<PD0LPM<IR0AAB<I0OJJ
Sent: 260211/0021z @:I0OJJ.ITA.EU [Rome] obcm1.13-38-g65b7
From: I0OJJ @ I0OJJ.ITA.EU (Gustavo)
To:   KEPS @ AMSAT
X-Info: This message was generated automatically


QST de W1STR

AMSAT Orbital Elements for Amateur Satellites in TLE Format
From Orbital Analysis Office
New England Sci-Tech STEM Education Center
Natick MA February 11, 2026
To all radio amateurs


These element sets describe the orbits of various satellites 
in use by the amateur radio community. For details see:
www.amsat.org/keplerian-elements-formats/

A daily update of element sets is available at:
www.amsat.org/tle/daily-bulletin.txt
or without bulletin text:
www.amsat.org/tle/dailytle.txt


AO-07
1 07530U 74089B   26041.01658287 -.00000029  00000-0  10926-3 0  9996
2 07530 101.9973  52.9092 0012252  15.2269   8.0536 12.53695674344585
UO-11
1 14781U 84021B   26041.48388441  .00001754  00000-0  18578-3 0  9998
2 14781  97.7898   8.6242 0006191 237.3405 122.7216 14.90402925238251
AO-27
1 22825U 93061C   26041.15638609  .00000117  00000-0  61508-4 0  9992
2 22825  98.7043 108.5373 0009442 111.1948 249.0244 14.30903571688834
FO-29
1 24278U 96046B   26041.58746636 -.00000016  00000-0  17323-4 0  9994
2 24278  98.5418 267.6685 0350771  64.9775 298.7357 13.53266744456042
GO-32
1 25397U 98043D   26041.55553201  .00000112  00000-0  68666-4 0  9999
2 25397  98.9991  31.1707 0000958 167.3488 192.7715 14.24398219433309
ISS
1 25544U 98067A   26041.53604394  .00010157  00000-0  19516-3 0  9996
2 25544  51.6312 206.5863 0011092  84.3744 275.8509 15.48525084552126
NO-44
1 26931U 01043C   26041.52721269  .00000227  00000-0  11584-3 0  9999
2 26931  67.0490 211.8589 0007028 266.2371  93.7927 14.31896268272317
SO-50
1 27607U 02058C   26041.57119818  .00001833  00000-0  23433-3 0  9993
2 27607  64.5529 160.6340 0074510 285.6057  73.6834 14.82673390245684
CO-55
1 27844U 03031E   26040.95475420  .00000394  00000-0  18977-3 0  9991
2 27844  98.6777  51.0999 0009375 188.7120 171.3898 14.24242227173564
CO-57
1 27848U 03031J   26041.51250435  .00000328  00000-0  16343-3 0  9997
2 27848  98.6804  51.4650 0008967 205.6626 154.4108 14.23541381173358
RS-22
1 27939U 03042A   26041.62618727  .00001709  00000-0  27311-3 0  9995
2 27939  98.3410 222.4394 0010536 314.6344 134.5070 14.73175499196919
CO-58
1 28895U 05043F   26041.39438520  .00002115  00000-0  34339-3 0  9995
2 28895  98.2783 194.5137 0013298 246.0974 113.8839 14.72194337 83090
CO-65
1 32785U 08021C   26041.57737038  .00005973  00000-0  39227-3 0  9999
2 32785  97.8160  20.5820 0011228  97.7340 262.5163 15.07964907966104
CO-66
1 32791U 08021J   26041.49007517  .00018658  00000-0  68751-3 0  9997
2 32791  97.7497  33.8233 0005106  62.2218 297.9538 15.27865017967919
RS-30
1 32953U 08025A   26041.58658622  .00000047  00000-0  26512-3 0  9992
2 32953  82.4991  74.1930 0018639 225.1879 134.7686 12.43174988803960
SRMSAT
1 37841U 11058D   26041.48311852  .00000461  00000-0  10651-3 0  9990
2 37841  19.9717 106.3665 0011512 250.1508 226.4861 14.11537439739890
ZACUBE-1
1 39417U 13066B   26041.44939808  .00006787  00000-0  54133-3 0  9995
2 39417  97.8176   3.1435 0040601 314.1006  45.6878 14.99993735661725
Delfi-N3xt
1 39428U 13066N   26041.54482818  .00008538  00000-0  77808-3 0  9992
2 39428  97.8347 322.1499 0075390 267.9833  91.2751 14.93213088655716
GOMX-1
1 39430U 13066Q   26041.57967891  .00001866  00000-0  28709-3 0  9990
2 39430  97.6584 249.9731 0130600 123.6863 237.6877 14.68980338651321
LO-74
1 39440U 13066AA  26041.41623266  .00004860  00000-0  46093-3 0  9992
2 39440  97.8777 350.0627 0060872  87.4884 273.3302 14.92621255658075
AO-73
1 39444U 13066AE  26041.36253685  .00009587  00000-0  62894-3 0  9992
2 39444  97.8144  10.4585 0035466 275.5824  84.1358 15.07369350660548
DTUSAT-2
1 40030U 14033W   26041.48234104  .00008555  00000-0  48834-3 0  9990
2 40030  98.0820  31.3899 0006639 318.3085  41.7638 15.12996446633515
EO-80
1 40032U 14033Y   26041.48866401  .00008923  00000-0  50736-3 0  9996
2 40032  98.0705  30.7092 0005731 239.3652 120.7013 15.13126863633492
LILACSAT-2
1 40908U 15049K   26041.55017623  .00016795  00000-0  33408-3 0  9991
2 40908  97.4856  73.8492 0007456   7.4259 352.7100 15.46987099576143
Horyu-4
1 41340U 16012D   26041.02652476  .00072402  00000-0  91264-3 0  9997
2 41340  30.9908 260.7809 0001558 114.0950 245.9864 15.58256884550789
Lapan A3
1 41603U 16040E   26041.59653297  .00004138  00000-0  13549-3 0  9995
2 41603  97.1466  42.0108 0012432 106.6798 253.5810 15.32133123535420
CAS-2T
1 41847U 16066G   26041.20554016  .00001882  00000-0  27187-3 0  9996
2 41847  98.3938 118.3524 0343537 154.5945 207.2590 14.44370601486461
TechnoSat
1 42829U 17042E   26041.41907456  .00003760  00000-0  27532-3 0  9996
2 42829  97.4090 204.0961 0018294 162.7543 197.4308 15.04016369467644
AO-91
1 43017U 17073E   26041.56840500  .00009543  00000-0  43476-3 0  9992
2 43017  97.4910 271.4421 0158628  45.3919 316.0125 15.10249868446263
S-Net D
1 43186U 18014G   26041.53627411  .00006401  00000-0  34346-3 0  9992
2 43186  97.5460 307.1744 0010364  95.1805 265.0610 15.15254362439575
S-Net B
1 43187U 18014H   26041.21514905  .00006662  00000-0  35754-3 0  9994
2 43187  97.5463 306.8382 0010977  92.7608 267.4881 15.15222325439522
S-Net A
1 43188U 18014J   26041.20555051  .00006443  00000-0  34562-3 0  9994
2 43188  97.5475 307.0147 0010924  93.1696 267.0786 15.15256523439529
S-Net C
1 43189U 18014K   26041.48251839  .00006601  00000-0  35424-3 0  9996
2 43189  97.5491 307.3443 0012275  86.0722 274.1913 15.15217415438114
Ten-Koh
1 43677U 18084G   26041.46784642  .00003982  00000-0  30649-3 0  9999
2 43677  98.0744 228.5196 0009498 182.7757 177.3416 15.02258577397135
PO-101
1 43678U 18084H   26041.57008605  .00002556  00000-0  21155-3 0  9998
2 43678  98.1064 232.4923 0009064 210.8826 149.1864 14.99826430397232
QO-100
1 43700U 18090A   26041.55342562  .00000153  00000-0  00000-0 0  9996
2 43700   0.0161 104.7662 0002451 262.3086 358.5317  1.00273071 26404
MinXSS-2
1 43758U 18099A   26041.15429246  .00029741  00000-0  78323-3 0  9999
2 43758  97.4685 114.4551 0008515  10.1687 349.9729 15.38454476394546
AO-95
1 43770U 18099N   26041.13240212  .00012198  00000-0  51068-3 0  9990
2 43770  97.4576 102.0148 0010546  78.1419 282.1000 15.23652000393858
SNUSat 2
1 43782U 18099AA  26041.08119790  .00009258  00000-0  43696-3 0  9994
2 43782  97.4261  96.4949 0011302  28.3867 331.7982 15.19614587393710
SnugLite
1 43784U 18099AC  26041.10397960  .00013221  00000-0  54721-3 0  9992
2 43784  97.4069  96.7931 0003561  41.7118 318.4391 15.24060414393949
ITASat 1
1 43786U 18099AE  26041.07854989  .00008137  00000-0  41152-3 0  9993
2 43786  97.4231  95.1679 0014540  78.0251 282.2612 15.17205998393623
EAGLET 1
1 43790U 18099AJ  26041.08916830  .00005229  00000-0  30920-3 0  9993
2 43790  97.4436  94.0993 0012729  68.4259 291.8327 15.11823125393126
ESEO
1 43792U 18099AL  26041.57439148  .00001946  00000-0  14555-3 0  9999
2 43792  97.4173  84.3030 0013648  52.3626 307.8837 15.03801819392772
JO-97
1 43803U 18099AX  26041.40931388  .00016733  00000-0  59140-3 0  9996
2 43803  97.4318 104.0993 0006110  13.6102 346.5302 15.29245224394228
Suomi 100
1 43804U 18099AY  26041.13445181  .00012275  00000-0  49088-3 0  9995
2 43804  97.4383 102.1770 0010737  16.5718 343.5869 15.25191310394034
ISAT
1 43879U 18111D   26041.33940522  .00049532  00000-0  95034-3 0  9991
2 43879  97.5897 328.6776 0008462  60.1539 300.0551 15.47799670391441
UWE-4
1 43880U 18111E   26041.30179107  .00028141  00000-0  74872-3 0  9993
2 43880  97.5854 324.6383 0011728  66.9744 293.2736 15.38118101391225
Sparrow
1 43881U 18111F   26041.60944668  .00062736  00000-0  10762-2 0  9994
2 43881  97.6102 333.1207 0008096  86.1656 274.0521 15.50943403391621
Prox-1
1 44339U 19036A   26038.98393201  .00015657  00000-0  16715-2 0  9992
2 44339  23.9946 255.0995 0007174 343.5994  16.4272 14.87082051354199
Taurus 1
1 44530U 19059C   26041.54558603  .00007285  00000-0  12130-2 0  9990
2 44530  98.6266 198.7635 0008168 348.0124  12.0885 14.70338694340027
TO-108
1 44881U 19093C   26041.55483428  .00001478  00000-0  17376-3 0  9996
2 44881  97.7659 116.8285 0014420 139.0885 221.1416 14.86277391332605
FloripaSat 1
1 44885U 19093G   26041.47840197  .00008855  00000-0  67418-3 0  9999
2 44885  97.7888 134.9482 0011921 137.0850 223.1306 15.02271375333613
RS-44
1 44909U 19096E   26041.51005406  .00000026  00000-0  51187-4 0  9999
2 44909  82.5172  63.8839 0218654  80.6328 281.9422 12.79746949286140
SALSAT
1 46495U 20068K   26041.49400384  .00009475  00000-0  35335-3 0  9996
2 46495  97.8837  37.0641 0011268  36.4910 323.7093 15.27605495296002
CSS (TIANHE-1)
1 48274U 21035A   26041.38023602  .00022829  00000-0  28372-3 0  9991
2 48274  41.4682  14.1762 0004477  48.6892 311.4331 15.59430362273345
CUTE
1 49263U 21088D   26041.19225937  .00037612  00000-0  39442-3 0  9998
2 49263  97.4258 131.9094 0004326  59.1198 301.0486 15.64292467242574
TeikyoSat 4
1 49396U 21102B   26041.55500218  .00002370  00000-0  15363-3 0  9999
2 49396  97.3843  75.8997 0012557  17.1094 343.0556 15.08984006233627
Z-Sat
1 49399U 21102E   26041.54733535  .00004881  00000-0  24856-3 0  9997
2 49399  97.3515  80.6953 0016198 334.9274  25.1172 15.17139937234232
KOSEN 1
1 49402U 21102H   26041.57659351  .00008433  00000-0  34179-3 0  9994
2 49402  97.3389  86.2423 0012727 298.0238  61.9712 15.24820922234714
HO-113
1 50466U 21131B   26041.56702361  .00000838  00000-0  27319-3 0  9996
2 50466  98.4983 134.6754 0005199 114.0745 246.0988 14.41215059216873
SNUGLITE 2
1 52899U 22065F   26041.33465330  .00001442  00000-0  28400-3 0  9996
2 52899  98.1980 186.5574 0008462  66.6233 293.5858 14.64050976192433
